Regional Weather Roundup
Issued by NWS

Home | Current Version | Previous Version | Graphics & Text | Print | Product List | Glossary On
Versions: 1 2 3 4 5 6 7 8 9 10 11 12 13 14 15 16 17 18 19 20 21 22 23 24 25 26 27 28 29 30 31 32 33 34 35 36 37 38 39 40 41 42 43 44 45 46 47 48 49 50
000
ASUS45 KABQ 050201
RWRNM
WEATHER ROUNDUP FOR NEW MEXICO
NATIONAL WEATHER SERVICE ALBUQUERQUE NM
700 PM MST WED MAR 04 2015

NOTE: "FAIR" MEANS FEW OR NO CLOUDS BELOW 12,000 FEET AGL WITH NO
       SIGNIFICANT WEATHER OR OBSTRUCTIONS TO VISION.

      THIS PRODUCT IS RELEASED AS TWO VERSIONS.  ONE VERSION NEAR
      THE TOP OF THE HOUR CONTAINING PRELIMINARY DATA FROM ALBUQUERQUE
      AND OTHER STATIONS.  A FINAL VERSION WITH ADDITIONAL DATA IS
      ISSUED ABOUT 10 MINUTES AFTER THE HOUR.

NMZ501-503-504-510>518-050300-
NORTHWEST PLATEAU/NORTHCENTRAL MOUNTAINS

CITY           SKY/WX    TMP DP  RH WIND       PRES   REMARKS
FARMINGTON     CLEAR     34  15  46 W16       30.12R WCI  24
LOS ALAMOS     CLEAR     32   9  37 S6        30.03R WCI  26
SANTA FE       PTCLDY    25  18  74 SE16G23   30.06R WCI  12
TAOS           CLOUDY    23  16  74 NE16G28   30.06R VSB 3/4 WCI  10
ANGEL FIRE     SNOW      15  13  91 S12       30.05R VSB 1/2 WCI   2

$$
NMZ402-403-502-505>509-050300-
WESTCENTRAL MOUNTAINS/SOUTHWEST MOUNTAINS

CITY           SKY/WX    TMP DP  RH WIND       PRES   REMARKS
GALLUP         CLEAR     35  14  42 NW8       30.13R WCI  29
GRANTS         CLEAR     30  13  48 NW13      30.10R WCI  20
SILVER CITY    CLEAR     45  23  42 NW5       30.07R

$$
NMZ407-409-411-412-050300-
SOUTHERN DESERTS

CITY           SKY/WX    TMP DP  RH WIND       PRES   REMARKS
LORDSBURG      FAIR      48  19  32 W9        30.05R
DEMING         CLOUDY    50  33  52 E8        30.05R
LAS CRUCES     CLOUDY    49  32  52 NE8       30.06R
HOLLOMAN AFB   PTCLDY    50  36  59 S1        30.02R
ALAMOGORDO     PTCLDY    48  34  57 W5        30.04R
T OR C         CLEAR     45  31  58 W7        30.03R

$$
NMZ519>523-050300-
CENTRAL VALLEYS/CENTRAL HIGHLANDS

CITY           SKY/WX    TMP DP  RH WIND       PRES   REMARKS
ALBUQUERQUE    PTCLDY    44  14  29 N16       30.06R
DOUBLE EAGLE   CLEAR     37  16  41 NW14      30.06R WCI  29
MORIARTY ARPT  CLOUDY    24  19  83 E9        30.12R WCI  14
CLINES CORNERS FOG       17  15  92 E13       30.07R VSB 1/4 WCI   4
BELEN          FAIR      40  11  31 NW8       30.04R WCI  34
SOCORRO          N/A     48  12  24 W8        30.04R

$$
NMZ524>526-539-540-050300-
SOUTHCENTRAL MOUNTAINS

CITY           SKY/WX    TMP DP  RH WIND       PRES   REMARKS
RUIDOSO        NOT AVBL

$$
NMZ527>531-050300-
NORTHEAST HIGHLANDS/NORTHEAST PLAINS

CITY           SKY/WX    TMP DP  RH WIND       PRES   REMARKS
LAS VEGAS      LGT SNOW  14  10  85 E8        30.12R VSB 1   WCI   3
RATON          LGT SNOW  15  11  83 S5        30.15R FOG     WCI   8
CLAYTON        LGT SNOW  18  15  88 N8        30.23R FOG     WCI   8

$$
NMZ532>537-050300-
EASTCENTRAL PLAINS

CITY           SKY/WX    TMP DP  RH WIND       PRES   REMARKS
TUCUMCARI      CLOUDY    23  17  78 NE13      30.27R WCI  11
CANNON AFB     CLOUDY    21  17  86 NE16      30.23R WCI   7
CLOVIS AIRPORT CLOUDY    21  16  79 NE18      30.24R WCI   6

$$
NMZ028-029-538-050300-
SOUTHEAST PLAINS

CITY           SKY/WX    TMP DP  RH WIND       PRES   REMARKS
ROSWELL        CLOUDY    29  24  82 NE8       30.24R WCI  21
ARTESIA        CLOUDY    30  27  86 N10       30.25R WCI  21
CARLSBAD       CLOUDY    32  26  78 N15       30.23R WCI  22
HOBBS          CLOUDY    25  25 100 NE21      30.23R WCI  10


$$



USA.gov is the U.S. government's official web portal to all federal, state and local government web resources and services.